Location: Carrizal
(9.8472°N, 67.3428°W)
Time: 07:15:13
(UTC+00:00)

ADEOS - Pass Details

Date: 13 April 2024
Orbit: 790 x 793 km, 98.9° (Epoch: 25 May)

Event Time Altitude Azimuth Distance (km) Brightness Sun altitude
Rises 23:20:44 0° 155° (SSE) 3,281 6.4 -10.7°
Reaches altitude 10° 23:23:07 10° 150° (SSE) 2,353 5.6 -11.3°
Maximum altitude 23:28:07 48° 76° (ENE) 1,022 3.8 -12.5°
Drops below altitude 10° 23:33:06 10° 3° (N) 2,353 6.1 -13.7°
Sets 23:35:29 0° 357° (N) 3,282 7.0 -14.3°
